BAW2273 EGKK-KJFK

Flight info

Callsign BAW2273
Flight time N/A
Altitude 38000
Route NOVMA L620 SAM N19 ADKIK DCT MOPAT DCT MALOT/M082F390 NATD ALLRY/N0466F400 N468A TUSKY DCT PLYMM PARCH4
Aircraft B772/H-SDE2E3FGHIJ5LORVWXY/LB1D1

Departure

Time 2026-04-16 14:06
Airport London Gatwick Airport (EGKK)

Arrival

Time N/A
Airport John F. Kennedy International Airport (KJFK)
Time Latitude Longitude Altitude Speed Heading
2026-04-16 13:13 51.15605 -0.16778 208 ft 0 kts 168°
2026-04-16 13:45 51.15626 -0.16785 215 ft 4 kts 168°
2026-04-16 13:45 51.15652 -0.16794 217 ft 4 kts 174°
2026-04-16 13:46 51.15674 -0.16787 215 ft 4 kts 233°
2026-04-16 13:46 51.15682 -0.16759 214 ft 4 kts 258°
2026-04-16 13:46 51.15686 -0.16724 219 ft 1 kts 258°
2026-04-16 13:51 51.15682 -0.16756 215 ft 10 kts 257°
2026-04-16 13:52 51.15659 -0.16924 214 ft 18 kts 258°
2026-04-16 13:52 51.15632 -0.17115 218 ft 18 kts 257°
2026-04-16 13:52 51.15601 -0.17293 219 ft 16 kts 234°
2026-04-16 13:52 51.15510 -0.17299 208 ft 14 kts 167°
2026-04-16 13:53 51.15417 -0.17267 217 ft 14 kts 167°
2026-04-16 13:53 51.15327 -0.17235 214 ft 12 kts 169°
2026-04-16 13:53 51.15250 -0.17178 217 ft 12 kts 145°
2026-04-16 13:53 51.15201 -0.17078 219 ft 9 kts 92°
2026-04-16 13:54 51.15202 -0.17067 218 ft 0 kts 85°
2026-04-16 13:55 51.15204 -0.17031 213 ft 5 kts 81°
2026-04-16 13:55 51.15206 -0.17015 210 ft 0 kts 78°
2026-04-16 13:58 51.15213 -0.16966 210 ft 0 kts 77°
2026-04-16 14:01 51.15214 -0.16956 208 ft 3 kts 77°
2026-04-16 14:01 51.15216 -0.16947 208 ft 0 kts 78°
2026-04-16 14:04 51.15222 -0.16878 214 ft 16 kts 91°
2026-04-16 14:04 51.15138 -0.16791 213 ft 10 kts 199°
2026-04-16 14:04 51.15114 -0.16860 217 ft 0 kts 256°
2026-04-16 14:05 51.15083 -0.17082 218 ft 53 kts 257°
2026-04-16 14:06 51.14948 -0.18061 215 ft 126 kts 258°
2026-04-16 14:06 51.14725 -0.19667 503 ft 156 kts 255°
2026-04-16 14:06 51.14511 -0.21367 1289 ft 160 kts 255°
2026-04-16 14:06 51.14276 -0.23128 1889 ft 173 kts 254°
2026-04-16 14:07 51.13987 -0.25160 2110 ft 202 kts 253°
2026-04-16 14:07 51.13661 -0.27480 2344 ft 227 kts 255°
2026-04-16 14:07 51.13313 -0.29975 2978 ft 233 kts 255°
2026-04-16 14:07 51.12956 -0.32532 3675 ft 240 kts 256°
2026-04-16 14:08 51.12591 -0.35130 4016 ft 241 kts 256°
2026-04-16 14:08 51.12221 -0.37759 3996 ft 245 kts 256°
2026-04-16 14:08 51.11850 -0.40424 4010 ft 248 kts 256°
2026-04-16 14:08 51.11459 -0.43092 4307 ft 245 kts 252°
2026-04-16 14:09 51.10792 -0.45601 4954 ft 249 kts 243°
2026-04-16 14:09 51.09997 -0.48026 5829 ft 243 kts 242°
2026-04-16 14:09 51.09207 -0.50430 6504 ft 250 kts 243°
2026-04-16 14:09 51.08408 -0.52918 7073 ft 257 kts 243°
2026-04-16 14:10 51.07610 -0.55439 7793 ft 257 kts 243°
2026-04-16 14:10 51.06805 -0.58000 8380 ft 260 kts 244°
2026-04-16 14:10 51.05994 -0.60584 9057 ft 261 kts 244°
2026-04-16 14:10 51.05240 -0.63213 9642 ft 262 kts 252°
2026-04-16 14:11 51.04819 -0.66072 10140 ft 268 kts 258°
2026-04-16 14:11 51.04477 -0.69027 10493 ft 281 kts 258°
2026-04-16 14:11 51.04093 -0.72177 10642 ft 300 kts 258°
2026-04-16 14:11 51.03667 -0.75531 10847 ft 318 kts 258°
2026-04-16 14:12 51.03209 -0.79032 11400 ft 328 kts 257°
2026-04-16 14:12 51.02730 -0.82614 12114 ft 334 kts 257°
2026-04-16 14:12 51.02241 -0.86233 13008 ft 337 kts 257°
2026-04-16 14:12 51.01745 -0.89889 13890 ft 341 kts 257°
2026-04-16 14:13 51.01233 -0.93583 14661 ft 345 kts 256°
2026-04-16 14:13 51.00680 -0.97297 15153 ft 347 kts 256°
2026-04-16 14:13 51.00124 -1.01054 15178 ft 350 kts 256°
2026-04-16 14:13 50.99601 -1.04819 15186 ft 349 kts 257°
2026-04-16 14:14 50.99090 -1.08570 15178 ft 347 kts 257°
2026-04-16 14:14 50.98579 -1.12310 15185 ft 347 kts 257°
2026-04-16 14:14 50.98065 -1.16052 15185 ft 347 kts 257°
2026-04-16 14:14 50.97549 -1.19791 15189 ft 347 kts 257°
2026-04-16 14:15 50.97030 -1.23538 15186 ft 348 kts 257°
2026-04-16 14:15 50.96509 -1.27282 15184 ft 348 kts 256°
2026-04-16 14:15 50.95986 -1.31028 15194 ft 349 kts 256°
2026-04-16 14:15 50.95456 -1.34810 15819 ft 353 kts 257°
2026-04-16 14:16 50.94953 -1.38616 16691 ft 353 kts 257°
2026-04-16 14:16 50.94469 -1.42436 17523 ft 354 kts 258°
2026-04-16 14:16 50.93987 -1.46275 18282 ft 357 kts 258°
2026-04-16 14:16 50.93496 -1.50161 18914 ft 361 kts 258°
2026-04-16 14:17 50.92999 -1.54076 19538 ft 363 kts 258°
2026-04-16 14:17 50.92496 -1.58011 20173 ft 365 kts 258°
2026-04-16 14:17 50.91988 -1.61968 20796 ft 368 kts 258°
2026-04-16 14:17 50.91474 -1.65951 21380 ft 370 kts 258°
2026-04-16 14:18 50.90955 -1.69963 21984 ft 373 kts 258°
2026-04-16 14:18 50.90431 -1.74001 22554 ft 376 kts 258°
2026-04-16 14:18 50.89900 -1.78075 23136 ft 379 kts 258°
2026-04-16 14:18 50.89365 -1.82171 23726 ft 381 kts 258°
2026-04-16 14:19 50.88826 -1.86292 24223 ft 383 kts 258°
2026-04-16 14:19 50.88283 -1.90430 24753 ft 384 kts 258°
2026-04-16 14:19 50.87739 -1.94567 25321 ft 384 kts 258°
2026-04-16 14:19 50.87191 -1.98708 25841 ft 385 kts 258°
2026-04-16 14:20 50.86640 -2.02869 26334 ft 387 kts 258°
2026-04-16 14:20 50.86087 -2.07053 26814 ft 389 kts 258°
2026-04-16 14:20 50.85530 -2.11255 27273 ft 391 kts 258°
2026-04-16 14:20 50.84970 -2.15476 27744 ft 393 kts 258°
2026-04-16 14:21 50.84405 -2.19724 28236 ft 395 kts 258°
2026-04-16 14:21 50.83836 -2.23987 28696 ft 397 kts 258°
2026-04-16 14:21 50.83262 -2.28269 29139 ft 399 kts 257°
2026-04-16 14:21 50.82684 -2.32576 29592 ft 401 kts 257°
2026-04-16 14:22 50.82102 -2.36900 30065 ft 403 kts 257°
2026-04-16 14:22 50.81517 -2.41240 30485 ft 404 kts 257°
2026-04-16 14:22 50.80927 -2.45594 30829 ft 406 kts 257°
2026-04-16 14:22 50.80468 -2.50016 31141 ft 410 kts 264°
2026-04-16 14:23 50.80430 -2.54547 31453 ft 414 kts 270°
2026-04-16 14:23 50.80654 -2.59104 31756 ft 418 kts 274°
2026-04-16 14:23 50.81189 -2.63644 32031 ft 423 kts 281°
2026-04-16 14:23 50.81973 -2.68145 32307 ft 426 kts 281°
2026-04-16 14:24 50.82782 -2.72660 32586 ft 427 kts 282°
2026-04-16 14:24 50.83595 -2.77180 32955 ft 427 kts 282°
2026-04-16 14:24 50.84400 -2.81683 33414 ft 425 kts 281°
2026-04-16 14:24 50.85195 -2.86177 33857 ft 423 kts 281°
2026-04-16 14:25 50.85714 -2.89136 34136 ft 422 kts 281°
2026-04-16 14:25 50.86492 -2.93604 34467 ft 421 kts 281°
2026-04-16 14:25 50.87265 -2.98078 34753 ft 421 kts 281°
2026-04-16 14:25 50.88034 -3.02551 35034 ft 421 kts 281°
2026-04-16 14:26 50.88800 -3.07022 35364 ft 420 kts 281°
2026-04-16 14:26 50.89574 -3.11548 35668 ft 420 kts 281°
2026-04-16 14:26 50.90335 -3.16013 35978 ft 420 kts 281°
2026-04-16 14:26 50.91092 -3.20469 36290 ft 419 kts 281°
2026-04-16 14:27 50.91849 -3.24930 36601 ft 419 kts 281°
2026-04-16 14:27 50.92602 -3.29382 36896 ft 418 kts 281°
2026-04-16 14:27 50.93354 -3.33836 37172 ft 418 kts 281°
2026-04-16 14:27 50.94104 -3.38292 37419 ft 418 kts 281°
2026-04-16 14:28 50.94852 -3.42747 37690 ft 418 kts 281°
2026-04-16 14:28 50.95597 -3.47198 37966 ft 417 kts 281°
2026-04-16 14:28 50.96342 -3.51659 38078 ft 420 kts 281°
2026-04-16 14:28 50.97091 -3.56156 38138 ft 422 kts 281°
2026-04-16 14:29 50.98589 -3.65183 38144 ft 421 kts 281°
2026-04-16 14:29 51.00061 -3.74087 38136 ft 415 kts 280°
2026-04-16 14:30 51.01517 -3.82945 38145 ft 414 kts 280°
2026-04-16 14:30 51.02961 -3.91794 38134 ft 413 kts 280°
2026-04-16 14:31 51.04396 -4.00630 38136 ft 413 kts 280°
2026-04-16 14:31 51.05828 -4.09483 38140 ft 414 kts 280°
2026-04-16 14:32 51.07254 -4.18354 38132 ft 415 kts 280°
2026-04-16 14:32 51.08678 -4.27257 38160 ft 417 kts 279°
2026-04-16 14:33 51.10105 -4.36240 38139 ft 420 kts 279°
2026-04-16 14:33 51.11530 -4.45240 38124 ft 419 kts 279°
2026-04-16 14:34 51.12944 -4.54219 38121 ft 417 kts 279°
2026-04-16 14:34 51.14346 -4.63175 38116 ft 416 kts 279°
2026-04-16 14:35 51.15736 -4.72106 38132 ft 415 kts 279°
2026-04-16 14:35 51.16375 -4.76227 38140 ft 415 kts 279°
2026-04-16 14:36 51.17761 -4.85204 38119 ft 414 kts 278°
2026-04-16 14:36 51.19121 -4.94067 38120 ft 414 kts 278°
2026-04-16 14:37 51.20484 -5.02997 38121 ft 415 kts 278°
2026-04-16 14:37 51.21841 -5.11937 38124 ft 415 kts 278°
2026-04-16 14:38 51.23181 -5.20812 38125 ft 416 kts 278°
2026-04-16 14:38 51.24528 -5.29784 38113 ft 416 kts 278°
2026-04-16 14:39 51.25879 -5.38830 38113 ft 416 kts 278°
2026-04-16 14:39 51.27204 -5.47755 38111 ft 416 kts 278°
2026-04-16 14:40 51.28531 -5.56750 38107 ft 416 kts 278°
2026-04-16 14:40 51.29852 -5.65749 38103 ft 416 kts 278°
2026-04-16 14:41 51.31165 -5.74748 38121 ft 416 kts 278°
2026-04-16 14:41 51.32476 -5.83773 38102 ft 417 kts 277°
2026-04-16 14:42 51.33776 -5.92805 38096 ft 417 kts 277°
2026-04-16 14:42 51.35070 -6.01839 38086 ft 417 kts 277°
2026-04-16 14:43 51.36358 -6.10872 38090 ft 416 kts 277°
2026-04-16 14:43 51.37636 -6.19896 38085 ft 416 kts 277°
2026-04-16 14:44 51.38908 -6.28931 38090 ft 416 kts 277°
2026-04-16 14:44 51.40181 -6.38034 38109 ft 416 kts 277°
2026-04-16 14:45 51.41442 -6.47101 38085 ft 417 kts 277°
2026-04-16 14:45 51.42697 -6.56181 38073 ft 417 kts 277°
2026-04-16 14:46 51.43937 -6.65204 38071 ft 417 kts 277°
2026-04-16 14:46 51.45178 -6.74292 38079 ft 418 kts 276°
2026-04-16 14:47 51.46415 -6.83404 38066 ft 418 kts 276°
2026-04-16 14:47 51.47646 -6.92534 38066 ft 419 kts 276°
2026-04-16 14:48 51.48872 -7.01672 38057 ft 419 kts 276°
2026-04-16 14:48 51.50212 -7.10801 38055 ft 423 kts 281°
2026-04-16 14:49 51.52241 -7.19729 38046 ft 426 kts 284°
2026-04-16 14:49 51.54309 -7.28657 38052 ft 427 kts 283°
2026-04-16 14:50 51.56362 -7.37614 38044 ft 427 kts 283°
2026-04-16 14:50 51.58404 -7.46596 38042 ft 429 kts 283°
2026-04-16 14:51 51.60443 -7.55611 38019 ft 429 kts 283°
2026-04-16 14:51 51.62476 -7.64642 38034 ft 429 kts 283°
2026-04-16 14:53 51.70569 -8.00971 38010 ft 432 kts 283°
2026-04-16 14:54 51.72586 -8.10124 38005 ft 434 kts 283°
2026-04-16 14:54 51.74601 -8.19314 37984 ft 435 kts 283°
2026-04-16 14:55 51.76611 -8.28516 38024 ft 435 kts 283°
2026-04-16 14:55 51.78617 -8.37739 37988 ft 435 kts 283°
2026-04-16 14:56 51.80614 -8.46964 38004 ft 435 kts 283°
2026-04-16 14:56 51.82605 -8.56206 37996 ft 436 kts 283°
2026-04-16 14:57 51.84593 -8.65472 38004 ft 437 kts 283°
2026-04-16 14:57 51.86580 -8.74784 37978 ft 438 kts 283°
2026-04-16 14:58 51.89551 -8.88781 37973 ft 438 kts 283°
2026-04-16 14:59 51.91518 -8.98088 37970 ft 436 kts 283°
2026-04-16 14:59 51.93472 -9.07388 37966 ft 435 kts 283°
2026-04-16 15:00 51.95414 -9.16680 37956 ft 435 kts 283°
2026-04-16 15:00 51.97350 -9.25983 37943 ft 436 kts 283°
2026-04-16 15:01 51.99282 -9.35306 37966 ft 437 kts 283°
2026-04-16 15:01 52.01215 -9.44684 37920 ft 439 kts 283°
2026-04-16 15:02 52.03149 -9.54110 37940 ft 441 kts 283°
2026-04-16 15:02 52.05083 -9.63579 37935 ft 442 kts 282°
2026-04-16 15:03 52.07015 -9.73077 37935 ft 443 kts 282°
2026-04-16 15:03 52.08942 -9.82600 37929 ft 444 kts 282°
2026-04-16 15:04 52.10862 -9.92138 37953 ft 444 kts 282°
2026-04-16 15:04 52.12782 -10.01722 37914 ft 446 kts 282°
2026-04-16 15:05 52.14697 -10.11326 37895 ft 446 kts 282°
2026-04-16 15:05 52.16284 -10.19325 37895 ft 447 kts 282°
2026-04-16 15:06 52.18189 -10.28967 37889 ft 447 kts 282°
2026-04-16 15:06 52.20087 -10.38620 37884 ft 447 kts 282°
2026-04-16 15:07 52.21975 -10.48267 37868 ft 446 kts 282°
2026-04-16 15:07 52.23849 -10.57896 37864 ft 445 kts 282°
2026-04-16 15:08 52.25711 -10.67513 37864 ft 444 kts 282°
2026-04-16 15:08 52.27562 -10.77121 37884 ft 443 kts 282°
2026-04-16 15:09 52.29406 -10.86743 37865 ft 445 kts 282°
2026-04-16 15:09 52.31250 -10.96420 37863 ft 447 kts 282°
2026-04-16 15:10 52.33095 -11.06143 37830 ft 448 kts 282°
2026-04-16 15:10 52.34932 -11.15867 37826 ft 448 kts 282°
2026-04-16 15:11 52.36760 -11.25597 37817 ft 447 kts 282°
2026-04-16 15:11 52.38579 -11.35336 37834 ft 447 kts 282°
2026-04-16 15:12 52.40392 -11.45099 37811 ft 449 kts 282°
2026-04-16 15:12 52.42200 -11.54877 37814 ft 449 kts 281°
2026-04-16 15:13 52.44002 -11.64676 37811 ft 449 kts 281°
2026-04-16 15:13 52.45797 -11.74486 37799 ft 449 kts 281°
2026-04-16 15:14 52.47584 -11.84308 37775 ft 450 kts 281°
2026-04-16 15:14 52.49363 -11.94143 37775 ft 450 kts 281°
2026-04-16 15:15 52.51135 -12.03985 37771 ft 450 kts 281°
2026-04-16 15:15 52.52899 -12.13845 37771 ft 450 kts 281°
2026-04-16 15:16 52.54658 -12.23725 37758 ft 451 kts 281°
2026-04-16 15:16 52.56410 -12.33617 37753 ft 451 kts 281°
2026-04-16 15:17 52.58155 -12.43532 37738 ft 452 kts 281°
2026-04-16 15:17 52.59894 -12.53456 37735 ft 452 kts 281°
2026-04-16 15:18 52.61624 -12.63391 37740 ft 452 kts 281°
2026-04-16 15:18 52.63346 -12.73338 37726 ft 452 kts 281°
2026-04-16 15:19 52.65063 -12.83312 37715 ft 453 kts 281°
2026-04-16 15:19 52.66773 -12.93302 37697 ft 453 kts 281°
2026-04-16 15:20 52.68474 -13.03290 37702 ft 453 kts 280°
2026-04-16 15:20 52.70165 -13.13283 37699 ft 453 kts 280°
2026-04-16 15:21 52.71849 -13.23290 37687 ft 453 kts 280°
2026-04-16 15:21 52.73525 -13.33309 37681 ft 453 kts 280°
2026-04-16 15:22 52.75191 -13.43321 37679 ft 452 kts 280°
2026-04-16 15:22 52.76848 -13.53339 37667 ft 452 kts 280°
2026-04-16 15:23 52.78495 -13.63356 37660 ft 452 kts 280°
2026-04-16 15:23 52.80133 -13.73379 37683 ft 452 kts 280°
2026-04-16 15:24 52.81763 -13.83415 37652 ft 452 kts 279°
2026-04-16 15:24 52.83388 -13.93474 37648 ft 452 kts 279°
2026-04-16 15:25 52.85004 -14.03542 37649 ft 452 kts 279°
2026-04-16 15:25 52.86610 -14.13606 37634 ft 452 kts 279°
2026-04-16 15:26 52.88208 -14.23679 37641 ft 452 kts 279°
2026-04-16 15:26 52.89799 -14.33777 37655 ft 456 kts 279°
2026-04-16 15:26 52.90599 -14.38877 37757 ft 459 kts 279°
2026-04-16 15:27 52.91399 -14.43995 37982 ft 459 kts 279°
2026-04-16 15:27 52.92197 -14.49108 38260 ft 458 kts 279°
2026-04-16 15:27 52.92981 -14.54142 38462 ft 457 kts 279°
2026-04-16 15:28 52.94527 -14.64138 38567 ft 463 kts 279°
2026-04-16 15:28 52.96118 -14.74481 38593 ft 462 kts 279°
2026-04-16 15:29 52.97687 -14.84731 38591 ft 456 kts 279°
2026-04-16 15:29 52.99235 -14.94921 38603 ft 455 kts 279°
2026-04-16 15:30 53.01054 -15.04998 38587 ft 458 kts 285°
2026-04-16 15:30 53.03306 -15.14905 38599 ft 459 kts 286°
2026-04-16 15:31 53.05566 -15.24843 38584 ft 460 kts 285°
2026-04-16 15:31 53.07806 -15.34829 38575 ft 462 kts 285°
2026-04-16 15:32 53.10032 -15.44858 38573 ft 463 kts 285°
2026-04-16 15:32 53.12240 -15.54869 38571 ft 465 kts 285°
2026-04-16 15:33 53.14461 -15.64989 38564 ft 466 kts 285°
2026-04-16 15:33 53.16697 -15.75222 38558 ft 467 kts 285°
2026-04-16 15:34 53.18912 -15.85406 38572 ft 467 kts 285°
2026-04-16 15:34 53.21119 -15.95606 38545 ft 468 kts 285°
2026-04-16 15:35 53.23318 -16.05818 38545 ft 467 kts 285°
2026-04-16 15:36 53.27740 -16.26508 38533 ft 466 kts 285°
2026-04-16 15:36 53.29903 -16.36711 38535 ft 465 kts 285°
2026-04-16 15:37 53.32055 -16.46911 38528 ft 465 kts 285°
2026-04-16 15:37 53.34198 -16.57118 38543 ft 465 kts 284°
2026-04-16 15:38 53.36329 -16.67323 38542 ft 465 kts 284°
2026-04-16 15:38 53.38453 -16.77550 38522 ft 465 kts 284°
2026-04-16 15:39 53.40571 -16.87795 38518 ft 465 kts 284°
2026-04-16 15:39 53.42680 -16.98050 38506 ft 466 kts 284°
2026-04-16 15:40 53.44782 -17.08323 38505 ft 466 kts 284°
2026-04-16 15:40 53.46875 -17.18604 38500 ft 466 kts 284°
2026-04-16 15:41 53.49849 -17.28281 38510 ft 472 kts 302°
2026-04-16 15:41 53.52902 -17.37835 38512 ft 462 kts 284°
2026-04-16 15:42 53.54819 -17.48147 38500 ft 463 kts 282°
2026-04-16 15:42 53.56719 -17.58547 38493 ft 467 kts 283°
2026-04-16 15:43 53.58725 -17.68962 38483 ft 469 kts 284°
2026-04-16 15:43 53.60782 -17.79391 38481 ft 470 kts 284°
2026-04-16 15:44 53.62840 -17.89826 38478 ft 470 kts 284°
2026-04-16 15:44 53.64883 -18.00274 38500 ft 469 kts 284°
2026-04-16 15:45 53.66910 -18.10722 38480 ft 468 kts 284°
2026-04-16 15:45 53.68922 -18.21157 38462 ft 467 kts 284°
2026-04-16 15:46 53.70918 -18.31572 38466 ft 466 kts 284°
2026-04-16 15:46 53.72902 -18.41969 38466 ft 465 kts 284°
2026-04-16 15:47 53.74872 -18.52352 38454 ft 464 kts 283°
2026-04-16 15:47 53.76501 -18.60978 38467 ft 464 kts 283°
2026-04-16 15:48 53.78453 -18.71366 38457 ft 464 kts 283°
2026-04-16 15:48 53.80398 -18.81776 38454 ft 465 kts 283°
2026-04-16 15:49 53.82337 -18.92208 38455 ft 465 kts 283°
2026-04-16 15:49 53.84269 -19.02664 38453 ft 466 kts 283°
2026-04-16 15:50 53.86196 -19.13146 38457 ft 466 kts 283°
2026-04-16 15:50 53.88114 -19.23644 38474 ft 467 kts 283°
2026-04-16 15:51 53.90027 -19.34172 38466 ft 467 kts 283°
2026-04-16 15:51 53.91933 -19.44722 38470 ft 468 kts 283°
2026-04-16 15:52 53.93831 -19.55295 38490 ft 469 kts 283°
2026-04-16 15:52 53.95722 -19.65885 38485 ft 469 kts 283°
2026-04-16 15:53 53.97606 -19.76495 38482 ft 469 kts 283°
2026-04-16 15:53 53.99481 -19.87111 38487 ft 469 kts 283°
2026-04-16 15:54 54.01343 -19.97739 38495 ft 469 kts 283°
2026-04-16 15:54 54.02553 -20.08489 38501 ft 460 kts 269°
2026-04-16 15:55 54.02710 -20.19359 38497 ft 460 kts 268°
2026-04-16 15:55 54.02932 -20.30246 38503 ft 461 kts 270°
2026-04-16 15:56 54.03289 -20.41147 38504 ft 462 kts 270°
2026-04-16 15:56 54.03700 -20.52084 38521 ft 464 kts 271°
2026-04-16 15:57 54.04113 -20.63067 38500 ft 466 kts 271°
2026-04-16 15:57 54.04514 -20.74060 38512 ft 465 kts 271°
2026-04-16 15:58 54.04899 -20.85052 38512 ft 465 kts 270°
2026-04-16 15:58 54.05273 -20.96040 38523 ft 465 kts 270°
2026-04-16 15:59 54.05814 -21.12508 38518 ft 464 kts 270°
2026-04-16 15:59 54.06162 -21.23482 38523 ft 464 kts 270°
2026-04-16 16:00 54.06500 -21.34449 38522 ft 464 kts 270°
2026-04-16 16:00 54.06828 -21.45419 38529 ft 464 kts 270°
2026-04-16 16:01 54.07146 -21.56386 38530 ft 464 kts 270°
2026-04-16 16:01 54.07454 -21.67352 38533 ft 464 kts 270°
2026-04-16 16:02 54.07752 -21.78325 38532 ft 464 kts 270°
2026-04-16 16:02 54.08040 -21.89307 38532 ft 464 kts 270°
2026-04-16 16:03 54.08319 -22.00295 38537 ft 465 kts 270°
2026-04-16 16:03 54.08587 -22.11292 38541 ft 465 kts 270°
2026-04-16 16:04 54.08846 -22.22296 38539 ft 465 kts 270°
2026-04-16 16:04 54.09094 -22.33299 38541 ft 465 kts 270°
2026-04-16 16:05 54.09333 -22.44308 38542 ft 465 kts 270°
2026-04-16 16:05 54.09562 -22.55324 38545 ft 465 kts 270°
2026-04-16 16:06 54.09780 -22.66335 38545 ft 465 kts 270°
2026-04-16 16:06 54.09989 -22.77345 38553 ft 465 kts 270°
2026-04-16 16:07 54.10187 -22.88361 38551 ft 465 kts 270°
2026-04-16 16:07 54.10375 -22.99386 38555 ft 466 kts 270°
2026-04-16 16:08 54.10554 -23.10421 38551 ft 466 kts 269°
2026-04-16 16:08 54.10723 -23.21465 38552 ft 466 kts 269°
2026-04-16 16:09 54.10881 -23.32511 38552 ft 466 kts 269°
2026-04-16 16:09 54.11030 -23.43569 38553 ft 467 kts 269°
2026-04-16 16:10 54.11168 -23.54623 38554 ft 467 kts 269°
2026-04-16 16:10 54.11296 -23.65682 38555 ft 467 kts 269°
2026-04-16 16:11 54.11415 -23.76738 38555 ft 467 kts 269°
2026-04-16 16:11 54.11522 -23.87715 38554 ft 466 kts 269°
2026-04-16 16:12 54.11619 -23.98770 38560 ft 466 kts 269°
2026-04-16 16:12 54.11707 -24.09821 38560 ft 466 kts 269°
2026-04-16 16:13 54.11785 -24.20871 38574 ft 466 kts 269°
2026-04-16 16:13 54.11852 -24.31930 38565 ft 467 kts 269°
2026-04-16 16:14 54.11910 -24.42990 38564 ft 467 kts 269°
2026-04-16 16:14 54.11957 -24.54053 38566 ft 467 kts 269°
2026-04-16 16:15 54.11994 -24.65112 38570 ft 467 kts 269°
2026-04-16 16:15 54.12021 -24.76173 38570 ft 466 kts 269°
2026-04-16 16:16 54.12038 -24.87225 38576 ft 466 kts 269°
2026-04-16 16:16 54.12045 -24.98279 38577 ft 466 kts 269°
2026-04-16 16:17 54.12041 -25.09333 38587 ft 466 kts 269°
2026-04-16 16:17 54.12028 -25.20381 38586 ft 466 kts 269°
2026-04-16 16:18 54.12004 -25.31422 38585 ft 466 kts 269°
2026-04-16 16:18 54.11970 -25.42457 38608 ft 465 kts 268°
2026-04-16 16:19 54.11926 -25.53485 38598 ft 465 kts 268°
2026-04-16 16:19 54.11873 -25.64504 38606 ft 465 kts 268°
2026-04-16 16:20 54.11809 -25.75509 38611 ft 464 kts 268°
2026-04-16 16:20 54.11735 -25.86484 38612 ft 462 kts 268°
2026-04-16 16:21 54.11652 -25.97427 38620 ft 461 kts 268°
2026-04-16 16:21 54.11559 -26.08346 38630 ft 460 kts 268°
2026-04-16 16:22 54.11456 -26.19254 38632 ft 460 kts 268°
2026-04-16 16:22 54.11343 -26.30151 38641 ft 460 kts 268°
2026-04-16 16:23 54.11220 -26.41062 38642 ft 461 kts 267°
2026-04-16 16:23 54.11088 -26.51977 38653 ft 461 kts 267°
2026-04-16 16:24 54.10945 -26.62911 38656 ft 462 kts 267°
2026-04-16 16:24 54.10792 -26.73858 38671 ft 463 kts 267°
2026-04-16 16:25 54.10629 -26.84834 38666 ft 464 kts 267°
2026-04-16 16:25 54.10456 -26.95804 38679 ft 463 kts 267°
2026-04-16 16:26 54.10273 -27.06767 38682 ft 462 kts 267°
2026-04-16 16:26 54.10081 -27.17704 38678 ft 461 kts 267°
2026-04-16 16:27 54.09879 -27.28629 38692 ft 461 kts 266°
2026-04-16 16:27 54.09667 -27.39529 38690 ft 460 kts 267°
2026-04-16 16:28 54.09446 -27.50432 38707 ft 460 kts 266°
2026-04-16 16:28 54.09215 -27.61312 38706 ft 459 kts 267°
2026-04-16 16:29 54.08974 -27.72189 38711 ft 459 kts 266°
2026-04-16 16:29 54.08724 -27.83044 38704 ft 459 kts 266°
2026-04-16 16:30 54.08509 -27.92075 38734 ft 459 kts 266°
2026-04-16 16:30 54.08240 -28.02944 38723 ft 460 kts 266°
2026-04-16 16:31 54.07962 -28.13834 38735 ft 460 kts 266°
2026-04-16 16:31 54.07673 -28.24731 38729 ft 461 kts 266°
2026-04-16 16:32 54.07374 -28.35636 38746 ft 461 kts 266°
2026-04-16 16:32 54.07065 -28.46541 38732 ft 461 kts 266°
2026-04-16 16:33 54.06747 -28.57445 38750 ft 461 kts 266°
2026-04-16 16:33 54.06418 -28.68335 38744 ft 461 kts 266°
2026-04-16 16:34 54.06081 -28.79215 38761 ft 460 kts 266°
2026-04-16 16:34 54.05734 -28.90087 38763 ft 460 kts 266°
2026-04-16 16:35 54.05377 -29.00952 38775 ft 459 kts 266°
2026-04-16 16:35 54.05010 -29.11804 38777 ft 460 kts 266°
2026-04-16 16:36 54.04634 -29.22669 38783 ft 460 kts 266°
2026-04-16 16:36 54.04247 -29.33537 38783 ft 460 kts 266°
2026-04-16 16:37 54.03851 -29.44410 38793 ft 461 kts 265°
2026-04-16 16:37 54.03444 -29.55284 38803 ft 461 kts 265°
2026-04-16 16:38 54.03028 -29.66156 38801 ft 461 kts 265°
2026-04-16 16:38 54.02602 -29.77034 38810 ft 461 kts 265°
2026-04-16 16:39 54.02170 -29.87827 38804 ft 461 kts 265°
2026-04-16 16:39 54.01726 -29.98701 38829 ft 461 kts 265°
2026-04-16 16:40 54.01180 -30.09624 38817 ft 461 kts 264°
2026-04-16 16:40 54.00529 -30.20452 38841 ft 460 kts 263°
2026-04-16 16:41 53.99868 -30.31279 38820 ft 460 kts 264°
2026-04-16 16:41 53.99215 -30.42095 38832 ft 460 kts 264°
2026-04-16 16:42 53.98559 -30.52908 38845 ft 460 kts 264°
2026-04-16 16:42 53.97897 -30.63706 38840 ft 460 kts 263°
2026-04-16 16:43 53.97224 -30.74505 38856 ft 459 kts 263°
2026-04-16 16:43 53.96541 -30.85289 38849 ft 459 kts 263°
2026-04-16 16:44 53.95849 -30.96064 38862 ft 459 kts 263°
2026-04-16 16:44 53.95149 -31.06822 38858 ft 458 kts 263°
2026-04-16 16:45 53.94439 -31.17572 38870 ft 458 kts 263°
2026-04-16 16:45 53.93724 -31.28241 38873 ft 458 kts 263°
2026-04-16 16:46 53.92996 -31.38972 38876 ft 458 kts 263°
2026-04-16 16:46 53.92258 -31.49702 38877 ft 458 kts 263°
2026-04-16 16:47 53.91511 -31.60422 38885 ft 458 kts 263°
2026-04-16 16:47 53.90754 -31.71136 38884 ft 458 kts 263°
2026-04-16 16:48 53.89987 -31.81858 38905 ft 458 kts 262°
2026-04-16 16:48 53.89210 -31.92588 38896 ft 459 kts 262°
2026-04-16 16:49 53.88423 -32.03314 38892 ft 459 kts 262°
2026-04-16 16:49 53.87626 -32.14046 38895 ft 459 kts 262°
2026-04-16 16:50 53.86819 -32.24772 38907 ft 459 kts 262°
2026-04-16 16:50 53.86002 -32.35504 38903 ft 459 kts 262°
2026-04-16 16:51 53.85175 -32.46236 38914 ft 459 kts 262°
2026-04-16 16:51 53.84338 -32.56965 38908 ft 460 kts 262°
2026-04-16 16:52 53.83492 -32.67695 38909 ft 460 kts 262°
2026-04-16 16:52 53.82635 -32.78424 38921 ft 460 kts 262°
2026-04-16 16:53 53.81769 -32.89155 38919 ft 460 kts 262°
2026-04-16 16:53 53.80893 -32.99881 38922 ft 460 kts 262°
2026-04-16 16:54 53.80006 -33.10616 38938 ft 461 kts 262°
2026-04-16 16:54 53.79109 -33.21354 38936 ft 461 kts 262°
2026-04-16 16:55 53.78202 -33.32091 38930 ft 461 kts 262°
2026-04-16 16:55 53.77286 -33.42821 38927 ft 461 kts 262°
2026-04-16 16:56 53.76361 -33.53544 38929 ft 461 kts 262°
2026-04-16 16:56 53.75427 -33.64248 38936 ft 460 kts 262°
2026-04-16 16:57 53.74008 -33.80296 38937 ft 460 kts 262°
2026-04-16 16:58 53.73051 -33.90977 38936 ft 460 kts 262°
2026-04-16 16:58 53.72085 -34.01651 38936 ft 460 kts 261°
2026-04-16 16:59 53.71109 -34.12322 38944 ft 460 kts 261°
2026-04-16 16:59 53.70123 -34.22985 38946 ft 460 kts 261°
2026-04-16 17:00 53.69110 -34.33634 38955 ft 459 kts 261°
2026-04-16 17:00 53.68095 -34.44262 38952 ft 458 kts 261°
2026-04-16 17:01 53.67083 -34.54866 38954 ft 458 kts 261°
2026-04-16 17:01 53.66067 -34.65452 38950 ft 457 kts 261°
2026-04-16 17:02 53.65043 -34.76017 38956 ft 457 kts 261°
2026-04-16 17:02 53.64011 -34.86570 38958 ft 456 kts 261°
2026-04-16 17:03 53.62971 -34.97092 38961 ft 455 kts 261°
2026-04-16 17:03 53.61924 -35.07596 38961 ft 454 kts 261°
2026-04-16 17:04 53.60868 -35.18082 38964 ft 454 kts 261°
2026-04-16 17:04 53.59805 -35.28553 38965 ft 454 kts 261°
2026-04-16 17:05 53.58732 -35.39017 38968 ft 453 kts 261°
2026-04-16 17:05 53.57651 -35.49468 38969 ft 453 kts 261°
2026-04-16 17:06 53.56562 -35.59902 38975 ft 453 kts 261°
2026-04-16 17:06 53.55464 -35.70334 38977 ft 453 kts 261°
2026-04-16 17:07 53.54357 -35.80761 38973 ft 453 kts 261°
2026-04-16 17:07 53.53241 -35.91176 38962 ft 453 kts 261°
2026-04-16 17:08 53.52118 -36.01571 38977 ft 451 kts 261°
2026-04-16 17:08 53.50989 -36.11932 38978 ft 451 kts 261°
2026-04-16 17:09 53.49852 -36.22283 38975 ft 450 kts 261°
2026-04-16 17:09 53.48707 -36.32606 38978 ft 450 kts 261°
2026-04-16 17:10 53.47567 -36.42843 38978 ft 449 kts 261°
2026-04-16 17:10 53.46411 -36.53149 38973 ft 448 kts 261°
2026-04-16 17:11 53.45240 -36.63415 38977 ft 448 kts 261°
2026-04-16 17:11 53.44062 -36.73670 38978 ft 447 kts 261°
2026-04-16 17:12 53.42880 -36.83910 38974 ft 447 kts 261°
2026-04-16 17:12 53.41884 -36.92481 39002 ft 447 kts 261°
2026-04-16 17:13 53.40686 -37.02718 38977 ft 447 kts 261°
2026-04-16 17:13 53.39480 -37.12929 38987 ft 446 kts 261°
2026-04-16 17:14 53.38268 -37.23120 38983 ft 446 kts 261°
2026-04-16 17:14 53.37050 -37.33289 38984 ft 445 kts 261°
2026-04-16 17:15 53.35823 -37.43445 38985 ft 445 kts 260°
2026-04-16 17:15 53.34589 -37.53582 38973 ft 445 kts 260°
2026-04-16 17:16 53.33348 -37.63706 38987 ft 444 kts 260°
2026-04-16 17:16 53.32100 -37.73804 38988 ft 443 kts 260°
2026-04-16 17:17 53.30846 -37.83886 38986 ft 443 kts 260°
2026-04-16 17:17 53.29583 -37.93959 38991 ft 442 kts 260°
2026-04-16 17:18 53.28313 -38.04017 38995 ft 442 kts 260°
2026-04-16 17:18 53.27034 -38.14072 38990 ft 442 kts 260°
2026-04-16 17:19 53.25749 -38.24106 38998 ft 442 kts 260°
2026-04-16 17:19 53.24456 -38.34127 38990 ft 442 kts 260°
2026-04-16 17:20 53.23154 -38.44145 38991 ft 441 kts 260°
2026-04-16 17:20 53.21845 -38.54150 38988 ft 441 kts 260°
2026-04-16 17:21 53.20527 -38.64148 38981 ft 441 kts 260°
2026-04-16 17:21 53.19203 -38.74125 38990 ft 440 kts 260°
2026-04-16 17:22 53.17874 -38.84075 38991 ft 439 kts 259°
2026-04-16 17:22 53.16537 -38.94008 38991 ft 439 kts 259°
2026-04-16 17:23 53.15194 -39.03925 38994 ft 438 kts 259°
2026-04-16 17:23 53.13845 -39.13822 38994 ft 438 kts 259°
2026-04-16 17:24 53.12487 -39.23715 38992 ft 438 kts 259°
2026-04-16 17:24 53.11122 -39.33594 38992 ft 438 kts 259°
2026-04-16 17:25 53.09748 -39.43472 39012 ft 438 kts 259°
2026-04-16 17:25 53.08364 -39.53354 39004 ft 439 kts 259°
2026-04-16 17:26 53.06973 -39.63226 38995 ft 439 kts 259°
2026-04-16 17:26 53.05574 -39.73091 38990 ft 438 kts 259°
2026-04-16 17:27 53.04171 -39.82923 38998 ft 437 kts 259°
2026-04-16 17:27 53.02763 -39.92734 38999 ft 436 kts 259°
2026-04-16 17:28 53.01346 -40.02520 38999 ft 436 kts 259°
2026-04-16 17:28 52.99880 -40.12275 39002 ft 435 kts 258°
2026-04-16 17:29 52.98393 -40.22010 38981 ft 435 kts 258°
2026-04-16 17:29 52.96919 -40.31627 38997 ft 435 kts 258°
2026-04-16 17:30 52.95426 -40.41341 39003 ft 435 kts 258°
2026-04-16 17:30 52.93925 -40.51061 39008 ft 435 kts 258°
2026-04-16 17:31 52.92416 -40.60777 39008 ft 436 kts 258°
2026-04-16 17:31 52.90895 -40.70511 39015 ft 437 kts 258°
2026-04-16 17:32 52.89364 -40.80244 39001 ft 437 kts 258°
2026-04-16 17:32 52.87825 -40.89977 39004 ft 437 kts 258°
2026-04-16 17:33 52.86277 -40.99707 39008 ft 437 kts 258°
2026-04-16 17:33 52.84721 -41.09427 39009 ft 437 kts 258°
2026-04-16 17:34 52.83158 -41.19137 39008 ft 437 kts 258°
2026-04-16 17:34 52.81598 -41.28774 38996 ft 436 kts 258°
2026-04-16 17:35 52.80022 -41.38454 39010 ft 436 kts 258°
2026-04-16 17:35 52.78440 -41.48120 39014 ft 436 kts 258°
2026-04-16 17:36 52.76850 -41.57778 39016 ft 436 kts 258°
2026-04-16 17:36 52.75252 -41.67424 39017 ft 436 kts 258°
2026-04-16 17:37 52.73636 -41.77129 39007 ft 436 kts 258°
2026-04-16 17:37 52.72035 -41.86691 39019 ft 435 kts 258°
2026-04-16 17:38 52.70416 -41.96303 39025 ft 435 kts 258°
2026-04-16 17:38 52.68790 -42.05909 39021 ft 435 kts 258°
2026-04-16 17:39 52.67156 -42.15502 39022 ft 435 kts 257°
2026-04-16 17:39 52.65515 -42.25086 39021 ft 435 kts 257°
2026-04-16 17:40 52.63868 -42.34653 39014 ft 434 kts 258°
2026-04-16 17:40 52.62217 -42.44193 39021 ft 433 kts 257°
2026-04-16 17:41 52.60560 -42.53717 39019 ft 433 kts 257°
2026-04-16 17:41 52.58896 -42.63227 39029 ft 433 kts 257°
2026-04-16 17:42 52.57225 -42.72729 39023 ft 432 kts 257°
2026-04-16 17:42 52.55547 -42.82219 39025 ft 432 kts 257°
2026-04-16 17:43 52.53864 -42.91684 39027 ft 431 kts 257°
2026-04-16 17:43 52.52177 -43.01131 39034 ft 431 kts 257°
2026-04-16 17:44 52.50484 -43.10556 39026 ft 430 kts 257°
2026-04-16 17:44 52.48785 -43.19965 39030 ft 430 kts 257°
2026-04-16 17:45 52.47082 -43.29353 39002 ft 429 kts 257°
2026-04-16 17:45 52.45375 -43.38708 39022 ft 427 kts 257°
2026-04-16 17:46 52.43667 -43.48022 39031 ft 426 kts 257°
2026-04-16 17:46 52.41956 -43.57306 39035 ft 425 kts 257°
2026-04-16 17:47 52.40242 -43.66566 39031 ft 425 kts 257°
2026-04-16 17:47 52.38521 -43.75813 39022 ft 425 kts 257°
2026-04-16 17:48 52.36793 -43.85052 39018 ft 424 kts 257°
2026-04-16 17:48 52.35062 -43.94262 39028 ft 424 kts 257°
2026-04-16 17:49 52.33324 -44.03461 39033 ft 424 kts 257°
2026-04-16 17:49 52.31578 -44.12663 39024 ft 424 kts 257°
2026-04-16 17:50 52.29822 -44.21864 39024 ft 424 kts 256°
2026-04-16 17:50 52.28032 -44.31057 39023 ft 425 kts 256°
2026-04-16 17:51 52.26241 -44.40251 39035 ft 425 kts 256°
2026-04-16 17:51 52.24455 -44.49443 39028 ft 425 kts 256°
2026-04-16 17:52 52.22669 -44.58628 39020 ft 425 kts 256°
2026-04-16 17:52 52.20877 -44.67804 39026 ft 425 kts 256°
2026-04-16 17:53 52.19078 -44.76973 39026 ft 425 kts 256°
2026-04-16 17:53 52.17275 -44.86119 39018 ft 424 kts 256°
2026-04-16 17:54 52.15771 -44.93711 39024 ft 423 kts 256°
2026-04-16 17:54 52.13959 -45.02826 39033 ft 423 kts 256°
2026-04-16 17:55 52.12138 -45.11940 39024 ft 423 kts 256°
2026-04-16 17:55 52.10311 -45.21044 39028 ft 424 kts 256°
2026-04-16 17:56 52.08474 -45.30149 39008 ft 423 kts 256°
2026-04-16 17:56 52.05710 -45.43777 39028 ft 423 kts 256°
2026-04-16 17:57 52.03857 -45.52858 39024 ft 424 kts 256°
2026-04-16 17:57 52.01996 -45.61940 39041 ft 424 kts 255°
2026-04-16 17:58 52.00126 -45.71025 39025 ft 425 kts 255°
2026-04-16 17:58 51.98247 -45.80104 39024 ft 424 kts 255°
2026-04-16 17:59 51.96364 -45.89169 39032 ft 424 kts 255°
2026-04-16 17:59 51.94472 -45.98234 39035 ft 425 kts 255°
2026-04-16 18:00 51.92573 -46.07291 39040 ft 425 kts 255°
2026-04-16 18:00 51.90666 -46.16344 39041 ft 425 kts 255°
2026-04-16 18:01 51.88751 -46.25395 39007 ft 425 kts 255°
2026-04-16 18:01 51.86830 -46.34436 39027 ft 425 kts 255°
2026-04-16 18:02 51.84902 -46.43469 39045 ft 425 kts 255°
2026-04-16 18:02 51.82964 -46.52506 39036 ft 426 kts 255°
2026-04-16 18:03 51.81018 -46.61543 39044 ft 426 kts 255°
2026-04-16 18:03 51.79064 -46.70578 39044 ft 426 kts 255°
2026-04-16 18:04 51.77101 -46.79610 39036 ft 426 kts 255°
2026-04-16 18:04 51.75133 -46.88631 39045 ft 426 kts 255°
2026-04-16 18:05 51.73157 -46.97646 39046 ft 426 kts 254°
2026-04-16 18:05 51.71174 -47.06655 39047 ft 426 kts 254°
2026-04-16 18:06 51.69182 -47.15665 39052 ft 427 kts 254°
2026-04-16 18:06 51.67185 -47.24657 39037 ft 426 kts 254°
2026-04-16 18:07 51.65181 -47.33639 39051 ft 426 kts 254°
2026-04-16 18:07 51.63172 -47.42608 39058 ft 426 kts 254°
2026-04-16 18:08 51.61156 -47.51575 39062 ft 426 kts 254°
2026-04-16 18:08 51.59132 -47.60535 39063 ft 426 kts 254°
2026-04-16 18:09 51.57100 -47.69493 39043 ft 426 kts 254°
2026-04-16 18:09 51.55062 -47.78436 39061 ft 426 kts 254°
2026-04-16 18:10 51.53016 -47.87378 39060 ft 426 kts 254°
2026-04-16 18:10 51.50963 -47.96316 39063 ft 426 kts 254°
2026-04-16 18:11 51.48904 -48.05238 39060 ft 426 kts 254°
2026-04-16 18:11 51.46838 -48.14158 39096 ft 428 kts 253°
2026-04-16 18:12 51.45798 -48.18633 39232 ft 428 kts 254°
2026-04-16 18:12 51.44757 -48.23102 39461 ft 428 kts 253°
2026-04-16 18:12 51.43715 -48.27566 39687 ft 427 kts 253°
2026-04-16 18:12 51.42673 -48.32023 39909 ft 427 kts 253°
2026-04-16 18:13 51.41629 -48.36475 40096 ft 427 kts 253°
2026-04-16 18:13 51.40582 -48.40933 40273 ft 428 kts 253°
2026-04-16 18:13 51.39534 -48.45387 40470 ft 428 kts 253°
2026-04-16 18:13 51.38482 -48.49848 40656 ft 428 kts 253°
2026-04-16 18:14 51.37429 -48.54306 40845 ft 428 kts 253°
2026-04-16 18:14 51.36373 -48.58766 40969 ft 430 kts 253°
2026-04-16 18:14 51.34240 -48.67750 41040 ft 434 kts 253°
2026-04-16 18:15 51.32092 -48.76754 41067 ft 432 kts 253°
2026-04-16 18:15 51.29959 -48.85649 41065 ft 427 kts 253°
2026-04-16 18:16 51.27836 -48.94475 41085 ft 424 kts 253°
2026-04-16 18:16 51.25716 -49.03261 41076 ft 424 kts 253°
2026-04-16 18:17 51.23591 -49.12027 41077 ft 424 kts 253°
2026-04-16 18:17 51.21457 -49.20800 41077 ft 424 kts 253°
2026-04-16 18:18 51.19311 -49.29581 41078 ft 426 kts 253°
2026-04-16 18:18 51.17153 -49.38381 41080 ft 427 kts 253°
2026-04-16 18:19 51.14979 -49.47203 41082 ft 428 kts 253°
2026-04-16 18:19 51.12796 -49.56034 41051 ft 429 kts 253°
2026-04-16 18:20 51.10601 -49.64870 41071 ft 429 kts 253°
2026-04-16 18:20 51.08399 -49.73706 41086 ft 430 kts 253°
2026-04-16 18:21 51.06188 -49.82544 41082 ft 430 kts 252°
2026-04-16 18:21 51.03970 -49.91376 41084 ft 430 kts 252°
2026-04-16 18:22 51.01744 -50.00202 41087 ft 430 kts 252°
2026-04-16 18:22 50.99579 -50.09039 41079 ft 429 kts 253°
2026-04-16 18:23 50.97468 -50.17894 41085 ft 429 kts 253°
2026-04-16 18:23 50.95350 -50.26730 41084 ft 428 kts 253°
2026-04-16 18:24 50.93220 -50.35542 41084 ft 428 kts 253°
2026-04-16 18:24 50.91084 -50.44331 41084 ft 427 kts 253°
2026-04-16 18:25 50.88941 -50.53106 41085 ft 426 kts 253°
2026-04-16 18:25 50.86794 -50.61865 41084 ft 427 kts 253°
2026-04-16 18:26 50.84640 -50.70618 41083 ft 427 kts 253°
2026-04-16 18:26 50.82488 -50.79304 41084 ft 427 kts 253°
2026-04-16 18:27 50.80315 -50.88043 41086 ft 427 kts 253°
2026-04-16 18:27 50.78080 -50.96739 41066 ft 428 kts 248°
2026-04-16 18:28 50.75067 -51.04904 41081 ft 431 kts 245°
2026-04-16 18:28 50.72336 -51.13285 41102 ft 428 kts 250°
2026-04-16 18:29 50.70008 -51.21924 41096 ft 428 kts 252°
2026-04-16 18:29 50.67812 -51.30651 41090 ft 428 kts 253°
2026-04-16 18:30 50.65618 -51.39378 41074 ft 428 kts 252°
2026-04-16 18:30 50.63392 -51.48140 41079 ft 428 kts 252°
2026-04-16 18:31 50.61169 -51.56833 41087 ft 428 kts 252°
2026-04-16 18:31 50.58938 -51.65516 41087 ft 428 kts 252°
2026-04-16 18:32 50.56701 -51.74194 41084 ft 428 kts 252°
2026-04-16 18:32 50.54459 -51.82856 41063 ft 427 kts 252°
2026-04-16 18:33 50.52214 -51.91506 41083 ft 427 kts 252°
2026-04-16 18:33 50.49934 -52.00122 41089 ft 428 kts 250°
2026-04-16 18:34 50.47618 -52.07019 41087 ft 431 kts 246°
2026-04-16 18:34 50.44734 -52.15257 41091 ft 430 kts 246°
2026-04-16 18:35 50.41855 -52.23490 41063 ft 430 kts 246°
2026-04-16 18:35 50.38518 -52.33040 41087 ft 430 kts 246°
2026-04-16 18:36 50.36113 -52.39915 41087 ft 430 kts 246°
2026-04-16 18:36 50.33236 -52.48115 41088 ft 430 kts 246°
2026-04-16 18:37 50.30354 -52.56301 41085 ft 430 kts 246°
2026-04-16 18:37 50.27466 -52.64480 41067 ft 429 kts 246°
2026-04-16 18:38 50.24573 -52.72642 41079 ft 429 kts 246°
2026-04-16 18:38 50.21677 -52.80792 41084 ft 429 kts 246°
2026-04-16 18:39 50.18770 -52.88944 41082 ft 430 kts 246°
2026-04-16 18:39 50.15856 -52.97092 41082 ft 430 kts 246°
2026-04-16 18:40 50.12933 -53.05236 41084 ft 430 kts 246°
2026-04-16 18:40 50.10007 -53.13362 41080 ft 430 kts 246°
2026-04-16 18:41 50.07072 -53.21490 41080 ft 431 kts 246°
2026-04-16 18:41 50.04129 -53.29613 41081 ft 431 kts 246°
2026-04-16 18:42 50.01182 -53.37723 41076 ft 431 kts 246°
2026-04-16 18:42 49.98226 -53.45832 41087 ft 431 kts 246°
2026-04-16 18:43 49.95267 -53.53922 41087 ft 431 kts 246°
2026-04-16 18:43 49.92301 -53.62006 41077 ft 431 kts 246°
2026-04-16 18:44 49.89334 -53.70070 41065 ft 430 kts 246°
2026-04-16 18:44 49.86382 -53.78066 41048 ft 430 kts 246°
2026-04-16 18:45 49.83392 -53.86140 41067 ft 429 kts 246°
2026-04-16 18:45 49.80436 -53.94098 41066 ft 429 kts 246°
2026-04-16 18:46 49.77456 -54.02099 41072 ft 429 kts 245°
2026-04-16 18:46 49.74468 -54.10093 41068 ft 429 kts 245°
2026-04-16 18:47 49.71473 -54.18082 41053 ft 429 kts 245°
2026-04-16 18:47 49.68474 -54.26056 41059 ft 429 kts 245°
2026-04-16 18:48 49.65469 -54.34026 41065 ft 430 kts 245°
2026-04-16 18:48 49.62457 -54.41988 41064 ft 430 kts 245°
2026-04-16 18:49 49.59436 -54.49947 41063 ft 430 kts 245°
2026-04-16 18:49 49.56412 -54.57891 41062 ft 429 kts 245°
2026-04-16 18:50 49.53387 -54.65814 41061 ft 429 kts 245°
2026-04-16 18:50 49.50357 -54.73725 41060 ft 429 kts 245°
2026-04-16 18:51 49.47324 -54.81623 41065 ft 428 kts 245°
2026-04-16 18:51 49.44287 -54.89504 41018 ft 428 kts 245°
2026-04-16 18:52 49.41253 -54.97354 41054 ft 427 kts 245°
2026-04-16 18:52 49.38217 -55.05188 41060 ft 426 kts 245°
2026-04-16 18:53 49.35181 -55.12999 41065 ft 426 kts 245°
2026-04-16 18:53 49.32141 -55.20797 41060 ft 426 kts 245°
2026-04-16 18:54 49.29096 -55.28584 41057 ft 425 kts 245°
2026-04-16 18:54 49.26047 -55.36357 41063 ft 426 kts 245°
2026-04-16 18:55 49.22994 -55.44122 41066 ft 426 kts 245°
2026-04-16 18:55 49.19931 -55.51886 41068 ft 426 kts 245°
2026-04-16 18:56 49.16860 -55.59646 41073 ft 427 kts 245°
2026-04-16 18:56 49.13785 -55.67392 41067 ft 426 kts 245°
2026-04-16 18:57 49.10708 -55.75126 41076 ft 426 kts 245°
2026-04-16 18:58 49.06077 -55.86719 41087 ft 427 kts 245°
2026-04-16 18:58 49.02980 -55.94446 41081 ft 427 kts 245°
2026-04-16 18:59 48.99877 -56.02162 41078 ft 427 kts 245°
2026-04-16 18:59 48.96774 -56.09855 41074 ft 426 kts 245°
2026-04-16 19:00 48.93672 -56.17527 41077 ft 425 kts 245°
2026-04-16 19:00 48.90568 -56.25178 41080 ft 425 kts 245°
2026-04-16 19:01 48.87464 -56.32810 41077 ft 424 kts 245°
2026-04-16 19:01 48.84360 -56.40420 41065 ft 424 kts 245°
2026-04-16 19:02 48.81253 -56.48015 41076 ft 423 kts 245°
2026-04-16 19:02 48.78145 -56.55594 41065 ft 423 kts 245°
2026-04-16 19:03 48.75035 -56.63152 41072 ft 423 kts 245°
2026-04-16 19:03 48.71919 -56.70706 41038 ft 422 kts 245°
2026-04-16 19:04 48.68805 -56.78232 41062 ft 422 kts 245°
2026-04-16 19:04 48.65689 -56.85744 41064 ft 421 kts 245°
2026-04-16 19:05 48.62568 -56.93244 41066 ft 421 kts 245°
2026-04-16 19:05 48.59443 -57.00734 41073 ft 421 kts 245°
2026-04-16 19:06 48.56314 -57.08215 41080 ft 421 kts 245°
2026-04-16 19:06 48.53183 -57.15678 41084 ft 421 kts 245°
2026-04-16 19:07 48.50049 -57.23127 41086 ft 420 kts 245°
2026-04-16 19:07 48.46915 -57.30555 41087 ft 419 kts 245°
2026-04-16 19:08 48.43786 -57.37950 41055 ft 418 kts 245°
2026-04-16 19:08 48.40659 -57.45318 41089 ft 417 kts 245°
2026-04-16 19:09 48.37534 -57.52668 41098 ft 417 kts 245°
2026-04-16 19:09 48.34397 -57.60028 41096 ft 419 kts 245°
2026-04-16 19:10 48.31249 -57.67389 41102 ft 418 kts 245°
2026-04-16 19:10 48.28098 -57.74733 41085 ft 418 kts 245°
2026-04-16 19:11 48.24945 -57.82064 41098 ft 418 kts 245°
2026-04-16 19:11 48.21771 -57.89428 41096 ft 417 kts 245°
2026-04-16 19:12 48.18637 -57.96675 41092 ft 417 kts 244°
2026-04-16 19:12 48.15476 -58.03968 41083 ft 417 kts 244°
2026-04-16 19:13 48.12311 -58.11246 41083 ft 417 kts 245°
2026-04-16 19:13 48.09146 -58.18509 41089 ft 417 kts 245°
2026-04-16 19:14 48.05973 -58.25771 41093 ft 417 kts 244°
2026-04-16 19:14 48.02793 -58.33028 41098 ft 417 kts 244°
2026-04-16 19:15 47.99606 -58.40283 41047 ft 418 kts 245°
2026-04-16 19:15 47.96417 -58.47522 41083 ft 418 kts 245°
2026-04-16 19:16 47.93218 -58.54763 41088 ft 418 kts 244°
2026-04-16 19:16 47.90555 -58.60778 41092 ft 419 kts 244°
2026-04-16 19:17 47.87339 -58.68024 41091 ft 419 kts 244°
2026-04-16 19:17 47.84114 -58.75270 41079 ft 419 kts 244°
2026-04-16 19:18 47.80885 -58.82506 41088 ft 420 kts 244°
2026-04-16 19:18 47.77649 -58.89738 41092 ft 420 kts 244°
2026-04-16 19:19 47.74406 -58.96970 41088 ft 421 kts 244°
2026-04-16 19:19 47.71155 -59.04198 41087 ft 421 kts 244°
2026-04-16 19:20 47.67899 -59.11415 41072 ft 421 kts 244°
2026-04-16 19:20 47.64642 -59.18619 41091 ft 421 kts 244°
2026-04-16 19:21 47.61374 -59.25827 41073 ft 422 kts 244°
2026-04-16 19:21 47.58099 -59.33035 41078 ft 422 kts 244°
2026-04-16 19:22 47.54816 -59.40237 41077 ft 422 kts 244°
2026-04-16 19:22 47.51528 -59.47433 41067 ft 422 kts 244°
2026-04-16 19:23 47.48229 -59.54633 41074 ft 423 kts 244°
2026-04-16 19:23 47.44920 -59.61838 41078 ft 424 kts 244°
2026-04-16 19:24 47.41604 -59.69037 41025 ft 424 kts 244°
2026-04-16 19:24 47.38282 -59.76232 41058 ft 424 kts 244°
2026-04-16 19:25 47.34951 -59.83426 41064 ft 425 kts 244°
2026-04-16 19:25 47.31614 -59.90617 41066 ft 425 kts 244°
2026-04-16 19:26 47.28265 -59.97811 41063 ft 426 kts 244°
2026-04-16 19:26 47.24910 -60.05001 41049 ft 426 kts 244°
2026-04-16 19:27 47.21548 -60.12187 41049 ft 426 kts 244°
2026-04-16 19:27 47.18182 -60.19363 41058 ft 427 kts 244°
2026-04-16 19:28 47.14808 -60.26539 41050 ft 427 kts 244°
2026-04-16 19:28 47.11426 -60.33710 41054 ft 427 kts 244°
2026-04-16 19:29 47.08041 -60.40872 41045 ft 427 kts 244°
2026-04-16 19:29 47.04652 -60.48022 41047 ft 427 kts 244°
2026-04-16 19:30 47.01262 -60.55155 41027 ft 426 kts 244°
2026-04-16 19:30 46.97870 -60.62274 41047 ft 426 kts 244°
2026-04-16 19:31 46.94478 -60.69378 41029 ft 426 kts 244°
2026-04-16 19:31 46.91079 -60.76479 41027 ft 426 kts 244°
2026-04-16 19:32 46.87677 -60.83563 41029 ft 426 kts 244°
2026-04-16 19:32 46.84270 -60.90642 41009 ft 426 kts 244°
2026-04-16 19:33 46.80860 -60.97710 41001 ft 425 kts 244°
2026-04-16 19:33 46.77447 -61.04764 41000 ft 426 kts 243°
2026-04-16 19:34 46.74029 -61.11813 41002 ft 426 kts 243°
2026-04-16 19:34 46.70602 -61.18863 41001 ft 426 kts 243°
2026-04-16 19:35 46.67168 -61.25909 40974 ft 427 kts 243°
2026-04-16 19:35 46.63729 -61.32945 41007 ft 426 kts 243°
2026-04-16 19:36 46.60287 -61.39971 41003 ft 427 kts 243°
2026-04-16 19:36 46.56840 -61.46990 41006 ft 426 kts 243°
2026-04-16 19:37 46.53390 -61.53996 41015 ft 426 kts 243°
2026-04-16 19:37 46.49942 -61.60979 41000 ft 425 kts 243°
2026-04-16 19:38 46.46495 -61.67946 41010 ft 425 kts 243°
2026-04-16 19:38 46.43045 -61.74900 41015 ft 425 kts 243°
2026-04-16 19:39 46.39589 -61.81852 41016 ft 425 kts 243°
2026-04-16 19:39 46.36129 -61.88791 41022 ft 425 kts 242°
2026-04-16 19:40 46.32665 -61.95724 41019 ft 425 kts 242°
2026-04-16 19:40 46.29192 -62.02655 41007 ft 426 kts 242°
2026-04-16 19:41 46.25689 -62.09630 40997 ft 426 kts 242°
2026-04-16 19:41 46.22201 -62.16557 40986 ft 426 kts 242°
2026-04-16 19:42 46.18734 -62.23425 40990 ft 426 kts 241°
2026-04-16 19:42 46.15216 -62.30377 41004 ft 426 kts 241°
2026-04-16 19:43 46.11717 -62.37276 40991 ft 426 kts 241°
2026-04-16 19:43 46.08241 -62.44110 40957 ft 425 kts 241°
2026-04-16 19:44 46.04748 -62.50962 40987 ft 424 kts 241°
2026-04-16 19:44 46.01255 -62.57797 40991 ft 424 kts 241°
2026-04-16 19:45 45.97756 -62.64630 40989 ft 424 kts 241°
2026-04-16 19:45 45.94253 -62.71453 40982 ft 424 kts 241°
2026-04-16 19:46 45.90744 -62.78269 40975 ft 424 kts 241°
2026-04-16 19:46 45.87235 -62.85072 40973 ft 424 kts 241°
2026-04-16 19:47 45.83717 -62.91874 40975 ft 425 kts 240°
2026-04-16 19:47 45.80195 -62.98667 40972 ft 425 kts 240°
2026-04-16 19:48 45.76665 -63.05459 40981 ft 424 kts 240°
2026-04-16 19:48 45.73132 -63.12242 40977 ft 425 kts 240°
2026-04-16 19:49 45.69590 -63.19024 40975 ft 426 kts 240°
2026-04-16 19:49 45.66042 -63.25802 40984 ft 426 kts 240°
2026-04-16 19:50 45.62493 -63.32566 40973 ft 425 kts 240°